DateTimeUTC,F1_A11,F1_S11,BsB_S11,BsG_S11,BsR_S11,BbsB_S11,BbsG_S11,BbsR_S11,BaB_A11,BaG_A11,BaR_A11,Tu_S11,T_S11,Uu_S11,U_S11,P_S11,T1_A11
2021-03-19T16:00:00Z,00040200,21000000,,,,,,,-000.66,-000.55,-000.60,17.3,24.5,,00.0,0649.9,31.0
2021-03-19T16:01:00Z,00040200,21000000,,,,,,,0006.08,0005.34,0004.77,17.3,24.5,,00.0,0649.9,31.0
2021-03-19T16:02:00Z,00040200,21000000,,,,,,,0006.98,0007.47,0005.23,17.3,24.6,,00.0,0649.9,31.0
2021-03-19T16:03:00Z,00040200,61000000,,,,,,,-008.35,-008.47,-006.47,17.3,24.6,,00.0,0649.9,31.0
2021-03-19T16:04:00Z,00040200,41000000,0001.09,0001.03,0000.50,0000.13,0000.05,-000.08,-001.95,-001.57,-001.51,17.5,24.4,,00.0,0650.8,31.0
2021-03-19T16:05:00Z,00040200,01000000,0001.30,0001.40,0000.84,0000.44,0000.00,0000.17,-000.41,-000.41,-000.41,17.5,24.4,,00.0,0650.9,31.0
2021-03-19T16:06:00Z,00040200,01000000,0001.65,0001.01,0000.75,0000.21,0000.49,-000.02,-000.44,-000.64,0000.08,17.5,24.4,,00.0,0650.9,31.0
2021-03-19T16:07:00Z,00040200,01000000,0000.88,0001.12,0000.47,0000.40,0000.34,-000.03,-000.24,-000.31,-000.51,17.5,24.4,,00.0,0650.9,31.0
2021-03-19T16:08:00Z,00040200,01000000,0001.51,0001.26,0000.55,0000.46,0000.16,-000.03,-000.15,-000.04,-000.12,17.5,24.4,,00.0,0650.9,31.0
2021-03-19T16:09:00Z,00040200,01000000,0000.37,0001.19,0000.97,0000.24,0000.12,0000.19,0000.81,0001.06,0000.93,17.5,24.4,,00.0,0650.9,31.0
2021-03-19T16:10:00Z,00040200,01000000,0000.53,0001.20,0000.72,-000.14,0000.23,0000.03,0001.00,0000.62,0000.58,17.5,24.4,,00.0,0650.9,31.0
2021-03-19T16:11:00Z,00040200,01000000,0001.34,0001.34,0000.76,0000.02,-000.00,0000.29,0001.15,0001.01,0001.14,17.5,24.4,,00.0,0650.9,31.0
2021-03-19T16:12:00Z,00040200,01000000,0001.03,0001.30,0000.58,0000.33,0000.18,0000.11,0000.55,0000.66,0000.21,17.5,24.4,,00.0,0650.9,31.0
2021-03-19T16:13:00Z,00040200,01000000,0001.22,0001.21,0000.60,0000.17,0000.13,0000.18,0000.72,0000.89,0000.21,17.5,24.4,,00.0,0650.9,31.0
2021-03-19T16:14:00Z,00040200,01000000,0000.49,0001.22,0000.70,0000.48,0000.43,0000.03,0000.58,0000.02,0000.52,17.5,24.4,,00.0,0650.9,31.0
2021-03-19T16:15:00Z,00040200,01000000,0000.78,0001.01,0000.89,0000.29,0000.16,0000.11,0000.23,0000.64,0000.60,17.5,24.4,,00.0,0650.9,31.0
2021-03-19T16:16:00Z,00040200,01000000,0001.26,0000.77,0001.00,0000.23,0000.33,0000.20,0000.60,0000.26,0000.33,17.5,24.4,,00.0,0650.9,31.0
2021-03-19T16:17:00Z,00040200,01000000,0001.44,0000.99,0000.69,0000.22,0000.28,0000.12,0000.20,0000.37,0000.28,17.5,24.4,,00.0,0650.8,31.0
2021-03-19T16:18:00Z,00040200,01000000,0000.94,0001.07,0000.42,0000.24,0000.41,-000.01,0000.33,-000.05,0000.03,17.5,24.3,,00.0,0650.9,31.0
2021-03-19T16:19:00Z,00040200,01000000,0001.08,0000.88,0000.90,-000.18,0000.20,0000.11,-000.03,0000.27,-000.18,17.5,24.4,,00.0,0650.8,31.0
2021-03-19T16:20:00Z,00040200,01000000,0001.01,0001.17,0000.70,0000.96,0000.26,-000.18,-000.32,0000.08,-000.33,17.5,24.3,,00.0,0650.9,31.0
2021-03-19T16:21:00Z,00040200,01000000,0000.32,0000.93,0001.02,0000.07,-000.01,0000.11,0000.59,0000.15,0000.80,17.5,24.4,,00.0,0650.9,31.0
2021-03-19T16:22:00Z,00040200,01000000,0001.16,0001.06,0000.81,0000.15,0000.37,0000.18,0000.17,0000.30,0000.06,17.5,24.4,,00.0,0650.9,31.0
2021-03-19T16:23:00Z,00040200,01000000,0001.09,0001.07,0001.16,0000.36,0000.15,0000.20,0000.28,0000.01,-000.12,17.5,24.4,,00.0,0650.9,31.0
2021-03-19T16:24:00Z,00040200,01000000,0000.75,0001.25,0000.68,0000.18,0000.15,0000.40,0000.92,0000.68,0000.62,17.5,24.4,,00.0,0650.9,31.0
2021-03-19T16:25:00Z,00040200,01000000,0000.88,0000.89,0000.75,0000.46,0000.26,0000.16,0000.35,0000.45,0000.37,17.5,24.3,,00.0,0650.9,31.0
2021-03-19T16:26:00Z,00040200,01000000,0001.21,0001.32,0000.75,0000.26,0000.16,0000.16,0000.53,0000.49,0000.26,17.5,24.3,,00.0,0650.9,31.0
2021-03-19T16:27:00Z,00040200,01000000,0000.78,0001.37,0000.75,0000.46,0000.23,0000.32,0000.27,0000.46,0000.65,17.5,24.3,,00.0,0650.9,31.0
2021-03-19T16:28:00Z,00040200,01000000,0000.85,0001.09,0000.86,0000.39,0000.31,0000.34,0000.27,-000.04,-000.22,17.5,24.3,,00.0,0650.9,31.0
2021-03-19T16:29:00Z,00040200,01000000,0000.96,0001.28,0000.67,0000.34,0000.34,0000.05,0000.01,0000.09,0000.58,17.5,24.3,,00.0,0650.9,31.0
2021-03-19T16:30:00Z,00040200,01000000,0001.48,0001.31,0000.87,0000.11,0000.11,0000.43,0000.46,0000.99,0000.21,17.5,24.3,,00.0,0650.9,31.0
2021-03-19T16:31:00Z,00040200,01000000,0001.17,0001.00,0000.82,-000.20,0000.17,0000.02,0000.44,-000.19,-000.13,17.5,24.3,,00.0,0650.9,31.0
2021-03-19T16:32:00Z,00040200,01000000,0001.10,0001.09,0000.47,0000.40,0000.17,0000.19,0000.52,0000.32,0000.65,17.5,24.3,,00.0,0650.9,31.0
2021-03-19T16:33:00Z,00040200,01000000,0001.30,0001.36,0000.76,-000.01,0000.21,0000.27,-000.66,-000.41,-000.43,17.5,24.3,,00.0,0650.9,30.9
2021-03-19T16:34:00Z,00040200,01000000,0001.01,0000.97,0000.74,0000.24,0000.23,0000.19,-000.34,-000.31,-000.58,17.5,24.3,,00.0,0650.9,30.9
2021-03-19T16:35:00Z,00040200,01000000,0001.23,0001.31,0000.65,-000.39,0000.85,0000.34,-000.72,-001.16,-000.61,17.5,24.3,,00.0,0650.9,30.9
2021-03-19T16:35:21Z,00040200,,0001.23,0001.31,0000.65,-000.39,0000.85,0000.34,-000.72,-001.16,-000.61,17.5,24.3,,00.0,0650.9,30.9
2021-03-19T16:35:22Z,00040200,,,,,,,,-000.72,-001.16,-000.61,17.5,24.3,,00.0,0650.9,30.9
2021-03-19T16:35:22Z,00040200,,,,,,,,-000.72,-001.16,-000.61,,,,,,30.9
2021-03-19T16:40:00Z,,410C0000,-000.27,0000.59,0000.57,-000.68,-000.16,0000.18,,,,18.0,24.3,,00.0,0650.7,
2021-03-19T16:40:30Z,04000200,410C0000,-000.27,0000.59,0000.57,-000.68,-000.16,0000.18,,,,18.0,24.3,,00.0,0650.7,30.5
2021-03-19T16:40:33Z,,410C0000,-000.27,0000.59,0000.57,-000.68,-000.16,0000.18,,,,18.0,24.3,,00.0,0650.7,
2021-03-19T16:40:40Z,0404020F,410C0000,-000.27,0000.59,0000.57,-000.68,-000.16,0000.18,-002.42,-002.05,-002.57,18.0,24.3,,00.0,0650.7,30.1
2021-03-19T16:41:00Z,0404020F,01000000,0001.07,0001.46,0000.74,-000.11,0000.03,-000.05,-001.13,-001.08,-001.16,17.9,24.3,,00.0,0650.7,30.3
2021-03-19T16:42:00Z,04040200,01000000,0001.17,0000.97,0000.70,0000.69,0000.40,0000.19,-001.75,-001.71,-001.41,17.9,24.2,,00.0,0650.8,31.0
2021-03-19T16:43:00Z,00040200,01000000,0001.40,0001.14,0000.87,0000.77,0000.21,0000.25,-001.21,-001.79,-001.14,17.9,24.2,,00.0,0650.8,31.7
2021-03-19T16:44:00Z,00040200,01000000,0000.91,0001.16,0000.91,0000.66,0000.50,0000.47,0000.16,0000.11,0000.48,17.9,24.1,,00.0,0650.8,31.7
2021-03-19T16:45:00Z,00040200,01000000,0001.31,0000.99,0000.62,0000.58,0000.25,-000.08,0000.74,0001.04,-000.49,17.9,24.1,,00.0,0650.8,31.5
2021-03-19T16:46:00Z,00040200,01000000,0000.94,0000.96,0001.10,0000.20,0000.26,-000.15,0000.50,0000.35,0000.69,17.9,24.1,,00.0,0650.9,31.3
2021-03-19T16:47:00Z,00040200,01000000,0000.61,0001.56,0000.70,0000.80,0000.04,0000.01,0000.10,0000.12,-000.01,17.9,24.1,,00.0,0650.9,31.3
2021-03-19T16:48:00Z,00040200,01000000,0000.94,0000.91,0000.82,-000.07,0000.35,0000.08,0000.01,-000.13,-000.31,17.9,24.1,,00.0,0650.9,31.2
2021-03-19T16:49:00Z,00040200,01000000,0001.03,0001.31,0000.81,0000.26,0000.13,0000.17,-000.09,0000.11,0000.42,17.9,24.1,,00.0,0650.9,31.1
2021-03-19T16:50:00Z,00040200,01000000,0000.95,0001.28,0000.83,0000.37,0000.25,0000.27,-000.13,0000.03,-000.45,17.8,24.1,,00.0,0650.9,31.1
2021-03-19T16:51:00Z,00040200,01000000,0000.99,0001.07,0000.86,0000.47,0000.17,0000.44,0000.39,0000.22,0000.34,17.8,24.1,,00.0,0650.9,31.1
2021-03-19T16:52:00Z,00040200,01000000,0001.33,0000.99,0000.72,0000.03,0000.31,0000.20,0004.90,0004.61,0003.60,17.8,24.1,,00.0,0650.9,31.0
2021-03-19T16:53:00Z,00040200,01000000,0000.83,0000.73,0000.81,-000.13,0000.29,0000.16,-003.34,-003.75,-002.90,17.7,24.1,,00.0,0650.9,31.0
2021-03-19T16:54:00Z,00040200,01000000,0001.13,0000.94,0000.81,0000.04,0000.37,0000.20,-000.80,-000.02,0000.10,17.7,24.1,,00.0,0650.9,31.0
2021-03-19T16:55:00Z,00040200,01000000,0000.97,0001.18,0000.94,-000.34,0000.06,0000.20,0000.58,0000.35,0000.07,17.7,24.1,,00.0,0650.9,31.0
2021-03-19T16:56:00Z,00040200,01000000,0001.10,0001.08,0000.88,0000.92,0000.28,0000.32,0000.10,0000.11,-000.06,17.8,24.2,,00.0,0650.9,31.0
2021-03-19T16:57:00Z,00040200,41000000,,,,,,,0003.54,0003.53,0002.98,17.8,24.2,,00.0,0650.9,31.0
2021-03-19T16:58:00Z,00040200,61000000,,,,,,,-001.55,-001.63,-001.41,17.5,24.4,,00.0,0650.0,31.0
2021-03-19T16:59:00Z,00040200,21000000,,,,,,,-001.17,-001.21,-000.59,17.5,24.5,,00.0,0650.0,31.0
